Weather History for KMLU - March, 2013

Change the Weather History Date:

Friday, March 22, 2013

  Actual Average Record
Temperature  
Mean Temperature 51 °F 60 °F  
Max Temperature 55 °F 72 °F 89 °F (1935)
Min Temperature 46 °F 48 °F 27 °F (1986)
Degree Days  
Heating Degree Days 14 7  
Month to date heating degree days 247 200  
Since 1 July heating degree days 1909 2094  
Cooling Degree Days 0 1  
Month to date cooling degree days 8 20  
Year to date cooling degree days 21 31  
Moisture  
Dew Point 46 °F    
Average Humidity 72    
Maximum Humidity 93    
Minimum Humidity 50    
Precipitation  
Precipitation 0.11 in 0.14 in 1.12 in (1930)
Month to date precipitation 0.51 3.42  
Year to date precipitation 14.96 13.06  
Snow  
Snow 0.00 in - - ()
Month to date snowfall 0.0  
Since 1 July snowfall 0.3  
Snow Depth 0.00 in    
Sea Level Pressure  
Sea Level Pressure 29.83 in    
Wind  
Wind Speed 8 mph (ENE)    
Max Wind Speed 16 mph    
Max Gust Speed 21 mph    
Visibility 6 miles    
Events Rain    
T = Trace of Precipitation, MM = Missing Value Source: NWS Daily Summary

Daily Weather History Graph

Daily Weather History Graph

Search for Another Location

Airport or City:

Trip Planner

Search our weather history database for the weather conditions in past years. The results will help you decide how hot, cold, wet, or windy it might be!

Date:

Astronomy

Mar. 22, 2013 Rise Set
Actual Time 7:08 AM CDT 7:21 PM CDT
Civil Twilight 6:44 AM CDT 7:45 PM CDT
Nautical Twilight 6:15 AM CDT 8:14 PM CDT
Astronomical Twilight 5:46 AM CDT 8:43 PM CDT
Moon 3:02 PM CDT (3/22) 3:55 AM CDT (3/22)
Length of Visible Light 13h 01m
Length of Day
12h 12m
Waxing Gibbous, 77% of the Moon is Illuminated
Mar 22
Waxing Gibbous
Mar 27
Full
Apr 2
Last Quarter
Apr 10
New
Apr 18
First Quarter

Hourly Weather History & Observations

Time (CDT) Temp. Windchill Dew Point Humidity Pressure Visibility Wind Dir Wind Speed Gust Speed Precip Events Conditions
12:53 AM 54.0 °F - 35.1 °F 49% 29.81 in 10.0 mi Calm Calm - N/A   Overcast
1:53 AM 54.0 °F - 36.0 °F 51% 29.80 in 10.0 mi East 5.8 mph - N/A   Overcast
2:53 AM 54.0 °F - 37.9 °F 55% 29.80 in 10.0 mi East 4.6 mph - N/A   Overcast
3:28 AM 51.8 °F - 42.8 °F 71% 29.80 in 9.0 mi NE 4.6 mph - 0.00 in Rain Light Rain
3:53 AM 51.1 °F - 43.0 °F 74% 29.79 in 6.0 mi East 3.5 mph - 0.00 in Rain Light Rain
4:53 AM 48.9 °F - 45.0 °F 86% 29.78 in 6.0 mi East 5.8 mph - 0.01 in Rain Light Rain
5:53 AM 48.0 °F - 46.0 °F 93% 29.80 in 4.0 mi ENE 11.5 mph - 0.01 in Rain Light Rain
6:45 AM 48.2 °F - 46.4 °F 93% 29.83 in 4.0 mi ENE 6.9 mph - 0.04 in Rain Light Rain
6:53 AM 48.0 °F - 46.0 °F 93% 29.83 in 4.0 mi ENE 10.4 mph - 0.04 in Rain Light Rain
7:09 AM 48.2 °F - 46.4 °F 93% 29.83 in 5.0 mi ENE 5.8 mph - 0.01 in Rain Light Rain
7:53 AM 46.9 °F - 46.0 °F 97% 29.86 in 4.0 mi ENE 15.0 mph 20.7 mph 0.02 in   Overcast
8:48 AM 46.4 °F 40.7 °F 44.6 °F 93% 29.87 in 9.0 mi East 12.7 mph 18.4 mph 0.00 in   Overcast
8:53 AM 46.9 °F - 45.0 °F 93% 29.87 in 8.0 mi ENE 11.5 mph - 0.01 in Rain Light Rain
9:53 AM 46.0 °F 41.9 °F 44.1 °F 93% 29.88 in 8.0 mi East 8.1 mph - 0.01 in   Overcast
10:53 AM 46.9 °F - 44.1 °F 90% 29.88 in 4.0 mi East 10.4 mph 17.3 mph 0.01 in   Overcast
11:53 AM 48.0 °F - 46.0 °F 93% 29.87 in 4.0 mi ESE 6.9 mph - N/A   Overcast
12:00 PM 48.2 °F - 44.6 °F 87% 29.87 in 8.0 mi East 8.1 mph - N/A   Overcast
12:16 PM 48.2 °F - 46.4 °F 93% 29.86 in 4.0 mi East 6.9 mph - N/A   Overcast
12:53 PM 50.0 °F - 46.9 °F 89% 29.85 in 4.0 mi East 6.9 mph - N/A   Overcast
1:53 PM 51.1 °F - 48.0 °F 89% 29.83 in 7.0 mi ENE 4.6 mph - N/A   Overcast
2:53 PM 52.0 °F - 48.9 °F 89% 29.81 in 4.0 mi ENE 6.9 mph - N/A   Overcast
3:53 PM 53.1 °F - 50.0 °F 89% 29.79 in 6.0 mi ENE 9.2 mph - N/A   Overcast
4:53 PM 54.0 °F - 50.0 °F 86% 29.78 in 6.0 mi ENE 6.9 mph - N/A   Overcast
5:53 PM 54.0 °F - 51.1 °F 90% 29.79 in 5.0 mi NE 5.8 mph - N/A   Overcast
6:53 PM 53.1 °F - 50.0 °F 89% 29.80 in 5.0 mi NE 9.2 mph - N/A   Overcast
7:50 PM 51.8 °F - 48.2 °F 88% 29.82 in 7.0 mi NE 9.2 mph - N/A   Overcast
7:53 PM 52.0 °F - 48.9 °F 89% 29.82 in 7.0 mi NE 9.2 mph - N/A   Overcast
8:36 PM 51.8 °F - 48.2 °F 88% 29.82 in 7.0 mi ENE 10.4 mph - N/A   Overcast
8:53 PM 52.0 °F - 48.9 °F 89% 29.83 in 7.0 mi NE 10.4 mph - N/A   Overcast
9:22 PM 51.8 °F - 48.2 °F 88% 29.84 in 7.0 mi NE 10.4 mph - 0.00 in Rain Light Rain
9:53 PM 51.1 °F - 48.0 °F 89% 29.83 in 7.0 mi ENE 10.4 mph - 0.00 in   Overcast
10:53 PM 50.0 °F - 48.0 °F 93% 29.84 in 7.0 mi NNE 9.2 mph - N/A   Overcast
11:53 PM 50.0 °F - 46.9 °F 89% 29.84 in 7.0 mi NE 8.1 mph - N/A   Overcast